Hourly Data Report for October 10, 2004

TORONTO CITY
ONTARIO

43°40'00.000" N
79°24'00.000" W
112.50 m
6158355
71508
XTO

Download Data

Hourly Data (October 2004)
Hourly Data Report for October 10, 2004
TIME
LST
Temp Definition
°C
Dew Point Definition
°C
Rel Hum Definition
%
Precip. Amount Definition
mm

Wind Dir Definition
10's deg

Wind Spd Definition
km/h
Visibility Definition
km
Stn Press Definition
kPa
Hmdx Definition


Wind Chill Definition


Weather Definition


00:00 11.4 6.6 72   LegendMM LegendMM LegendMM 100.39     LegendNANA
01:00 11.0 6.6 74   LegendMM LegendMM LegendMM 100.43     LegendNANA
02:00 10.3 6.2 76   LegendMM LegendMM LegendMM 100.44     LegendNANA
03:00 10.3 6.2 76   LegendMM LegendMM LegendMM 100.46     LegendNANA
04:00 10.6 6.1 74   LegendMM LegendMM LegendMM 100.50     LegendNANA
05:00 9.8 4.6 70   LegendMM LegendMM LegendMM 100.58     LegendNANA
06:00 9.5 3.7 67   LegendMM LegendMM LegendMM 100.66     LegendNANA
07:00 9.7 4.3 69   LegendMM LegendMM LegendMM 100.72     LegendNANA
08:00 10.2 5.0 70   LegendMM LegendMM LegendMM 100.76     LegendNANA
09:00 10.8 5.9 72   LegendMM LegendMM LegendMM 100.84     LegendNANA
10:00 11.9 6.4 69   LegendMM LegendMM LegendMM 100.82     LegendNANA
11:00 14.0 6.9 62   LegendMM LegendMM LegendMM 100.79     LegendNANA
12:00 15.3 7.1 58   LegendMM LegendMM LegendMM 100.78     LegendNANA
13:00 15.5 6.2 54   LegendMM LegendMM LegendMM 100.74     LegendNANA
14:00 15.3 7.2 58   LegendMM LegendMM LegendMM 100.73     LegendNANA
15:00 15.4 5.7 52   LegendMM LegendMM LegendMM 100.70     LegendNANA
16:00 15.1 5.9 54   LegendMM LegendMM LegendMM 100.73     LegendNANA
17:00 14.1 6.3 59   LegendMM LegendMM LegendMM 100.74     LegendNANA
18:00 12.4 6.4 67   LegendMM LegendMM LegendMM 100.80     LegendNANA
19:00 10.6 6.1 74   LegendMM LegendMM LegendMM 100.88     LegendNANA
20:00 9.4 5.8 78   LegendMM LegendMM LegendMM 100.92     LegendNANA
21:00 8.9 5.9 81   LegendMM LegendMM LegendMM 100.94     LegendNANA
22:00 8.4 5.7 83   LegendMM LegendMM LegendMM 100.94     LegendNANA
23:00 8.0 5.7 85   LegendMM LegendMM LegendMM 100.94     LegendNANA

Notes on Data Quality.

Legend

  • E = Estimated
  • M = Missing
  • NA = Not Available*
  • [empty] = Indicates an unobserved value
Date modified: